| time (UTC) | temp C | wind direction | speed KPH | gust KPH | rain 1hr cm | rain 24hr cm | rain mn cm | humidity % | barometer mb |
| 20260507151529 | 15 | 294 | 9.7 | 17.7 | 0.00 | 0.13 | 0.00 | 46 | 1012.1 |
| 20260507151025 | 14 | 331 | 11.3 | 19.3 | 0.00 | 0.13 | 0.00 | 51 | 1012.1 |
| 20260507150544 | 13 | 21 | 11.3 | 22.5 | 0.00 | 0.13 | 0.00 | 48 | 1012.2 |
| 20260507150021 | 13 | 5 | 16.1 | 24.1 | 0.00 | 0.13 | 0.00 | 46 | 1012.2 |
| 20260507145517 | 13 | 20 | 12.9 | 17.7 | 0.00 | 0.20 | 0.00 | 45 | 1012.4 |
| 20260507145016 | 13 | 317 | 8.0 | 17.7 | 0.00 | 0.20 | 0.00 | 46 | 1012.4 |
| 20260507144534 | 13 | 342 | 8.0 | 17.7 | 0.00 | 0.20 | 0.00 | 44 | 1012.5 |
| 20260507144032 | 13 | 311 | 8.0 | 24.1 | 0.00 | 0.20 | 0.00 | 46 | 1012.5 |
| 20260507143530 | 14 | 252 | 17.7 | 24.1 | 0.00 | 0.20 | 0.00 | 46 | 1012.5 |
| 20260507143028 | 13 | 345 | 8.0 | 17.7 | 0.00 | 0.20 | 0.00 | 47 | 1012.6 |
| 20260507142526 | 13 | 316 | 11.3 | 20.9 | 0.00 | 0.20 | 0.00 | 46 | 1012.6 |
| 20260507142023 | 13 | 317 | 11.3 | 22.5 | 0.00 | 0.20 | 0.00 | 47 | 1012.6 |
| 20260507141521 | 13 | 10 | 14.5 | 24.1 | 0.00 | 0.20 | 0.00 | 46 | 1012.6 |
| 20260507141018 | 13 | 360 | 14.5 | 25.7 | 0.00 | 0.20 | 0.00 | 45 | 1012.7 |
| 20260507140535 | 13 | 15 | 14.5 | 25.7 | 0.00 | 0.20 | 0.00 | 47 | 1012.8 |
| 20260507140054 | 13 | 19 | 12.9 | 22.5 | 0.00 | 0.20 | 0.00 | 46 | 1012.8 |
| 20260507135531 | 12 | 308 | 9.7 | 29.0 | 0.00 | 0.53 | 0.00 | 46 | 1012.8 |
| 20260507135029 | 12 | 350 | 16.1 | 29.0 | 0.00 | 0.53 | 0.00 | 48 | 1013.0 |
| 20260507134526 | 12 | 10 | 14.5 | 22.5 | 0.00 | 0.53 | 0.00 | 51 | 1013.0 |
| 20260507134024 | 12 | 335 | 11.3 | 17.7 | 0.00 | 0.53 | 0.00 | 51 | 1013.1 |
| 20260507133521 | 12 | 342 | 8.0 | 17.7 | 0.00 | 0.53 | 0.00 | 52 | 1013.2 |
| 20260507133019 | 12 | 354 | 11.3 | 19.3 | 0.00 | 0.53 | 0.00 | 51 | 1013.3 |
| 20260507132517 | 12 | 15 | 8.0 | 20.9 | 0.00 | 0.53 | 0.00 | 50 | 1013.3 |
| 20260507132016 | 12 | 300 | 11.3 | 20.9 | 0.00 | 0.53 | 0.00 | 52 | 1013.2 |
| 20260507131534 | 11 | 332 | 11.3 | 20.9 | 0.00 | 0.53 | 0.00 | 51 | 1013.4 |
| 20260507131030 | 11 | 300 | 6.4 | 25.7 | 0.00 | 0.53 | 0.00 | 55 | 1013.4 |
| 20260507130528 | 11 | 300 | 12.9 | 25.7 | 0.00 | 0.53 | 0.00 | 56 | 1013.2 |
| 20260507130026 | 11 | 277 | 6.4 | 12.9 | 0.00 | 0.53 | 0.00 | 58 | 1013.2 |
| 20260507125523 | 11 | 277 | 8.0 | 17.7 | 0.00 | 0.66 | 0.00 | 58 | 1013.3 |
| 20260507125021 | 11 | 350 | 8.0 | 17.7 | 0.00 | 0.66 | 0.00 | 58 | 1013.2 |
| 20260507124519 | 11 | 276 | 11.3 | 17.7 | 0.00 | 0.66 | 0.00 | 58 | 1013.3 |
| 20260507124016 | 11 | 340 | 11.3 | 17.7 | 0.00 | 0.66 | 0.00 | 59 | 1013.2 |
| 20260507123556 | 11 | 258 | 6.4 | 12.9 | 0.00 | 0.66 | 0.00 | 60 | 1013.0 |
| 20260507123032 | 11 | 258 | 6.4 | 16.1 | 0.00 | 0.66 | 0.00 | 60 | 1013.0 |
| 20260507122551 | 11 | 258 | 9.7 | 16.1 | 0.00 | 0.66 | 0.00 | 59 | 1013.0 |
| 20260507122027 | 11 | 254 | 9.7 | 14.5 | 0.00 | 0.66 | 0.00 | 60 | 1013.1 |
| 20260507121525 | 11 | 301 | 9.7 | 14.5 | 0.00 | 0.66 | 0.00 | 60 | 1013.0 |
| 20260507121022 | 11 | 302 | 8.0 | 14.5 | 0.00 | 0.66 | 0.00 | 59 | 1012.9 |
| 20260507120519 | 10 | 302 | 4.8 | 14.5 | 0.00 | 0.66 | 0.00 | 59 | 1013.0 |
| 20260507120016 | 10 | 302 | 4.8 | 14.5 | 0.00 | 0.66 | 0.00 | 60 | 1013.0 |
| 20260507115530 | 10 | 302 | 8.0 | 14.5 | 0.00 | 0.74 | 0.00 | 60 | 1013.1 |
| 20260507115028 | 10 | 302 | 6.4 | 16.1 | 0.00 | 0.74 | 0.00 | 60 | 1013.1 |
| 20260507114526 | 10 | 305 | 9.7 | 16.1 | 0.00 | 0.74 | 0.00 | 60 | 1013.0 |
| 20260507114023 | 10 | 304 | 9.7 | 20.9 | 0.00 | 0.74 | 0.00 | 60 | 1013.0 |
| 20260507113541 | 10 | 301 | 11.3 | 20.9 | 0.00 | 0.74 | 0.00 | 60 | 1013.0 |
| 20260507113017 | 10 | 232 | 8.0 | 16.1 | 0.00 | 0.74 | 0.00 | 60 | 1013.1 |
| 20260507112515 | 10 | 277 | 6.4 | 16.1 | 0.00 | 0.74 | 0.00 | 61 | 1013.1 |
| 20260507112032 | 10 | 288 | 8.0 | 24.1 | 0.00 | 0.74 | 0.00 | 61 | 1012.9 |
| 20260507111530 | 10 | 353 | 9.7 | 24.1 | 0.00 | 0.74 | 0.00 | 61 | 1012.9 |
| 20260507111027 | 10 | 334 | 9.7 | 17.7 | 0.00 | 0.74 | 0.00 | 62 | 1012.9 |
| 20260507110524 | 10 | 323 | 4.8 | 17.7 | 0.00 | 0.74 | 0.00 | 61 | 1012.8 |
| 20260507110023 | 10 | 329 | 8.0 | 17.7 | 0.00 | 0.74 | 0.00 | 61 | 1012.8 |
| 20260507105519 | 10 | 283 | 4.8 | 8.0 | 0.00 | 0.76 | 0.00 | 62 | 1012.7 |
| 20260507105038 | 10 | 283 | 3.2 | 9.7 | 0.00 | 0.76 | 0.00 | 63 | 1012.6 |
| 20260507104515 | 10 | 283 | 3.2 | 11.3 | 0.00 | 0.76 | 0.00 | 62 | 1012.5 |
| 20260507104033 | 10 | 283 | 4.8 | 14.5 | 0.00 | 0.76 | 0.00 | 62 | 1012.5 |
| 20260507103530 | 10 | 283 | 8.0 | 16.1 | 0.00 | 0.76 | 0.00 | 63 | 1012.4 |
| 20260507103028 | 10 | 309 | 6.4 | 12.9 | 0.00 | 0.76 | 0.00 | 63 | 1012.4 |
| 20260507102525 | 10 | 309 | 8.0 | 14.5 | 0.00 | 0.76 | 0.00 | 64 | 1012.4 |
| 20260507102022 | 10 | 309 | 8.0 | 14.5 | 0.00 | 0.76 | 0.00 | 65 | 1012.4 |
| 20260507101520 | 11 | 309 | 3.2 | 9.7 | 0.00 | 0.76 | 0.00 | 66 | 1012.1 |
| 20260507101017 | 10 | 309 | 4.8 | 11.3 | 0.00 | 0.76 | 0.00 | 66 | 1012.1 |
| 20260507100556 | 11 | 309 | 4.8 | 11.3 | 0.00 | 0.76 | 0.00 | 67 | 1012.1 |
| 20260507100054 | 11 | 309 | 3.2 | 8.0 | 0.00 | 0.76 | 0.00 | 67 | 1012.1 |
| 20260507095531 | 11 | 309 | 4.8 | 11.3 | 0.00 | 0.76 | 0.00 | 66 | 1012.1 |
| 20260507095049 | 11 | 309 | 6.4 | 11.3 | 0.00 | 0.76 | 0.00 | 66 | 1012.0 |
| 20260507094525 | 11 | 309 | 4.8 | 9.7 | 0.00 | 0.76 | 0.00 | 67 | 1012.0 |
| 20260507094023 | 11 | 309 | 1.6 | 9.7 | 0.00 | 0.76 | 0.00 | 68 | 1012.0 |
| 20260507093542 | 11 | 309 | 4.8 | 9.7 | 0.00 | 0.76 | 0.00 | 68 | 1012.2 |
| 20260507093019 | 11 | 309 | 4.8 | 9.7 | 0.00 | 0.76 | 0.00 | 68 | 1012.1 |
| 20260507092517 | 11 | 309 | 4.8 | 11.3 | 0.00 | 0.76 | 0.00 | 69 | 1012.1 |
| 20260507092056 | 11 | 309 | 6.4 | 11.3 | 0.00 | 0.76 | 0.00 | 69 | 1012.2 |
| 20260507091533 | 11 | 309 | 0.0 | 8.0 | 0.00 | 0.76 | 0.00 | 69 | 1012.2 |
| 20260507091028 | 11 | 309 | 1.6 | 9.7 | 0.00 | 0.76 | 0.00 | 67 | 1012.1 |
| 20260507090525 | 11 | 309 | 3.2 | 8.0 | 0.00 | 0.76 | 0.00 | 67 | 1012.1 |
| 20260507090022 | 11 | 309 | 3.2 | 9.7 | 0.00 | 0.76 | 0.00 | 66 | 1012.1 |
| 20260507085520 | 11 | 309 | 4.8 | 9.7 | 0.00 | 0.76 | 0.00 | 66 | 1011.9 |
| 20260507085018 | 11 | 309 | 4.8 | 9.7 | 0.00 | 0.76 | 0.00 | 66 | 1012.0 |
| 20260507084516 | 11 | 309 | 3.2 | 14.5 | 0.00 | 0.76 | 0.00 | 66 | 1012.0 |
| 20260507084033 | 11 | 309 | 6.4 | 14.5 | 0.00 | 0.76 | 0.00 | 66 | 1011.9 |
| 20260507083531 | 11 | 309 | 6.4 | 14.5 | 0.00 | 0.76 | 0.00 | 67 | 1012.0 |
| 20260507083029 | 11 | 309 | 8.0 | 14.5 | 0.00 | 0.76 | 0.00 | 67 | 1011.8 |
| 20260507082527 | 11 | 326 | 3.2 | 16.1 | 0.00 | 0.76 | 0.00 | 67 | 1011.8 |
| 20260507082025 | 11 | 327 | 4.8 | 16.1 | 0.00 | 0.76 | 0.00 | 66 | 1011.7 |
| 20260507081523 | 11 | 276 | 6.4 | 17.7 | 0.00 | 0.76 | 0.00 | 67 | 1011.7 |
| 20260507081021 | 11 | 276 | 8.0 | 17.7 | 0.00 | 0.76 | 0.00 | 66 | 1011.8 |
| 20260507080517 | 11 | 320 | 9.7 | 17.7 | 0.00 | 0.76 | 0.00 | 67 | 1011.5 |
| 20260507080053 | 11 | 335 | 8.0 | 20.9 | 0.00 | 0.76 | 0.00 | 68 | 1011.5 |
| 20260507075529 | 11 | 327 | 9.7 | 20.9 | 0.00 | 0.76 | 0.00 | 69 | 1011.4 |
| 20260507075047 | 11 | 339 | 9.7 | 17.7 | 0.00 | 0.76 | 0.00 | 70 | 1011.3 |
| 20260507074524 | 11 | 341 | 11.3 | 17.7 | 0.00 | 0.76 | 0.00 | 71 | 1011.3 |
| 20260507074021 | 11 | 322 | 8.0 | 16.1 | 0.00 | 0.76 | 0.00 | 73 | 1011.3 |
| 20260507073518 | 12 | 314 | 9.7 | 20.9 | 0.00 | 0.76 | 0.00 | 75 | 1011.3 |
| 20260507073016 | 12 | 294 | 11.3 | 16.1 | 0.00 | 0.76 | 0.00 | 76 | 1011.4 |
| 20260507072532 | 12 | 293 | 9.7 | 12.9 | 0.00 | 0.76 | 0.00 | 76 | 1011.4 |
| 20260507072028 | 12 | 293 | 6.4 | 11.3 | 0.00 | 0.76 | 0.00 | 76 | 1011.7 |
| 20260507071547 | 12 | 293 | 8.0 | 11.3 | 0.00 | 0.76 | 0.00 | 77 | 1011.7 |
| 20260507071024 | 12 | 293 | 3.2 | 9.7 | 0.00 | 0.76 | 0.00 | 77 | 1011.7 |
| 20260507070522 | 12 | 293 | 3.2 | 11.3 | 0.00 | 0.76 | 0.00 | 77 | 1011.7 |
| 20260507070019 | 12 | 293 | 8.0 | 12.9 | 0.00 | 0.76 | 0.00 | 77 | 1011.7 |
| 20260507065536 | 12 | 293 | 6.4 | 12.9 | 0.00 | 0.76 | 0.00 | 77 | 1011.9 |
| 20260507065034 | 12 | 292 | 8.0 | 11.3 | 0.00 | 0.76 | 0.00 | 77 | 1011.8 |
| 20260507064552 | 12 | 292 | 4.8 | 11.3 | 0.00 | 0.76 | 0.00 | 78 | 1011.9 |
| 20260507064050 | 12 | 292 | 3.2 | 11.3 | 0.00 | 0.76 | 0.00 | 77 | 1011.8 |
| 20260507063527 | 12 | 292 | 4.8 | 9.7 | 0.00 | 0.76 | 0.00 | 78 | 1011.7 |
| 20260507063046 | 12 | 292 | 3.2 | 9.7 | 0.00 | 0.76 | 0.00 | 78 | 1011.7 |
| 20260507062522 | 12 | 292 | 4.8 | 9.7 | 0.00 | 0.76 | 0.00 | 78 | 1011.7 |
| 20260507062020 | 12 | 292 | 3.2 | 8.0 | 0.00 | 0.76 | 0.00 | 77 | 1011.9 |
| 20260507061518 | 12 | 292 | 3.2 | 9.7 | 0.00 | 0.76 | 0.00 | 78 | 1011.8 |
| 20260507061016 | 12 | 292 | 3.2 | 9.7 | 0.00 | 0.76 | 0.00 | 78 | 1011.7 |
| 20260507060534 | 12 | 292 | 1.6 | 8.0 | 0.00 | 0.76 | 0.00 | 77 | 1011.9 |
| 20260507060032 | 12 | 292 | 4.8 | 8.0 | 0.00 | 0.76 | 0.00 | 77 | 1012.0 |
| 20260507055530 | 12 | 292 | 3.2 | 9.7 | 0.00 | 0.76 | 0.00 | 77 | 1011.9 |
| 20260507055027 | 12 | 292 | 3.2 | 9.7 | 0.00 | 0.76 | 0.00 | 77 | 1011.8 |
| 20260507054525 | 12 | 292 | 4.8 | 9.7 | 0.00 | 0.76 | 0.00 | 77 | 1011.6 |
| 20260507054022 | 12 | 292 | 6.4 | 9.7 | 0.00 | 0.76 | 0.00 | 76 | 1011.7 |
| 20260507053520 | 12 | 292 | 4.8 | 9.7 | 0.00 | 0.76 | 0.00 | 76 | 1011.7 |
| 20260507053018 | 12 | 292 | 3.2 | 9.7 | 0.00 | 0.76 | 0.00 | 76 | 1011.6 |
| 20260507052516 | 12 | 292 | 3.2 | 9.7 | 0.00 | 0.76 | 0.00 | 76 | 1011.7 |
| 20260507052034 | 12 | 292 | 1.6 | 9.7 | 0.00 | 0.76 | 0.00 | 76 | 1011.5 |
| 20260507051553 | 12 | 292 | 6.4 | 14.5 | 0.00 | 0.76 | 0.00 | 76 | 1011.4 |
| 20260507051028 | 12 | 293 | 4.8 | 14.5 | 0.00 | 0.76 | 0.00 | 77 | 1011.5 |
| 20260507050543 | 12 | 293 | 8.0 | 17.7 | 0.00 | 0.76 | 0.00 | 76 | 1011.3 |
| 20260507050019 | 12 | 337 | 9.7 | 19.3 | 0.00 | 0.76 | 0.00 | 76 | 1011.4 |
| 20260507045554 | 12 | 321 | 8.0 | 19.3 | 0.00 | 0.76 | 0.00 | 76 | 1011.4 |
| 20260507045031 | 12 | 278 | 8.0 | 14.5 | 0.00 | 0.76 | 0.00 | 76 | 1011.7 |
| 20260507044549 | 12 | 289 | 9.7 | 14.5 | 0.00 | 0.76 | 0.00 | 76 | 1011.5 |
| 20260507044025 | 12 | 287 | 4.8 | 14.5 | 0.00 | 0.76 | 0.00 | 77 | 1011.6 |
| 20260507043544 | 12 | 307 | 6.4 | 16.1 | 0.00 | 0.76 | 0.00 | 77 | 1011.5 |
| 20260507043021 | 12 | 312 | 9.7 | 16.1 | 0.00 | 0.76 | 0.00 | 77 | 1011.5 |
| 20260507042519 | 12 | 289 | 8.0 | 12.9 | 0.00 | 0.76 | 0.00 | 77 | 1011.7 |
| 20260507042017 | 12 | 289 | 4.8 | 12.9 | 0.00 | 0.76 | 0.00 | 78 | 1011.8 |
| 20260507041534 | 13 | 288 | 6.4 | 12.9 | 0.00 | 0.76 | 0.00 | 78 | 1011.9 |
| 20260507041031 | 13 | 288 | 4.8 | 17.7 | 0.00 | 0.76 | 0.00 | 78 | 1011.7 |
| 20260507040528 | 13 | 288 | 6.4 | 17.7 | 0.00 | 0.76 | 0.00 | 79 | 1011.5 |
| 20260507040047 | 13 | 293 | 12.9 | 17.7 | 0.00 | 0.76 | 0.00 | 79 | 1011.6 |
| 20260507035522 | 13 | 310 | 4.8 | 11.3 | 0.00 | 0.76 | 0.76 | 79 | 1011.9 |
| 20260507035040 | 13 | 310 | 8.0 | 11.3 | 0.00 | 0.76 | 0.76 | 80 | 1012.0 |
| 20260507034515 | 13 | 310 | 6.4 | 11.3 | 0.00 | 0.76 | 0.76 | 80 | 1011.7 |
| 20260507034032 | 13 | 328 | 4.8 | 11.3 | 0.00 | 0.76 | 0.76 | 80 | 1011.3 |
| 20260507033530 | 13 | 328 | 6.4 | 11.3 | 0.00 | 0.76 | 0.76 | 80 | 1011.2 |
| 20260507033028 | 13 | 328 | 3.2 | 12.9 | 0.00 | 0.76 | 0.76 | 80 | 1011.4 |
| 20260507032525 | 13 | 328 | 6.4 | 19.3 | 0.00 | 0.76 | 0.76 | 80 | 1011.5 |
| 20260507032023 | 13 | 338 | 6.4 | 20.9 | 0.00 | 0.76 | 0.76 | 80 | 1011.2 |
| 20260507031521 | 13 | 335 | 6.4 | 17.7 | 0.00 | 0.76 | 0.76 | 80 | 1011.5 |
| 20260507031018 | 13 | 326 | 12.9 | 17.7 | 0.00 | 0.76 | 0.76 | 79 | 1011.5 |
| 20260507030535 | 13 | 323 | 8.0 | 24.1 | 0.00 | 0.76 | 0.76 | 79 | 1011.5 |
| 20260507030033 | 13 | 360 | 14.5 | 29.0 | 0.00 | 0.76 | 0.76 | 80 | 1011.8 |
| 20260507025530 | 13 | 298 | 14.5 | 29.0 | 0.00 | 0.76 | 0.76 | 81 | 1011.6 |
| 20260507025027 | 13 | 302 | 11.3 | 19.3 | 0.00 | 0.76 | 0.76 | 81 | 1011.7 |
| 20260507024526 | 13 | 324 | 11.3 | 17.7 | 0.00 | 0.76 | 0.76 | 81 | 1011.4 |
| 20260507024044 | 13 | 337 | 6.4 | 22.5 | 0.00 | 0.76 | 0.76 | 81 | 1011.2 |
| 20260507023520 | 13 | 320 | 9.7 | 22.5 | 0.00 | 0.76 | 0.76 | 80 | 1011.1 |
| 20260507023039 | 13 | 357 | 6.4 | 17.7 | 0.00 | 0.76 | 0.76 | 80 | 1011.0 |
| 20260507022515 | 13 | 335 | 9.7 | 20.9 | 0.00 | 0.76 | 0.76 | 80 | 1011.1 |
| 20260507022034 | 13 | 346 | 12.9 | 20.9 | 0.00 | 0.76 | 0.76 | 80 | 1011.1 |
| 20260507021531 | 13 | 337 | 3.2 | 17.7 | 0.00 | 0.76 | 0.76 | 80 | 1011.2 |
| 20260507021028 | 13 | 10 | 8.0 | 24.1 | 0.00 | 0.76 | 0.76 | 80 | 1011.0 |
| 20260507020525 | 14 | 289 | 11.3 | 24.1 | 0.00 | 0.76 | 0.76 | 80 | 1011.3 |
| 20260507020023 | 14 | 311 | 4.8 | 20.9 | 0.00 | 0.76 | 0.76 | 80 | 1011.2 |
| 20260507015521 | 14 | 354 | 12.9 | 19.3 | 0.00 | 0.76 | 0.76 | 81 | 1011.2 |
| 20260507015056 | 14 | 324 | 8.0 | 14.5 | 0.00 | 0.76 | 0.76 | 80 | 1010.7 |
| 20260507014533 | 14 | 324 | 6.4 | 14.5 | 0.00 | 0.76 | 0.76 | 80 | 1010.9 |
| 20260507014030 | 14 | 324 | 3.2 | 14.5 | 0.00 | 0.76 | 0.76 | 80 | 1011.0 |
| 20260507013528 | 14 | 349 | 8.0 | 14.5 | 0.00 | 0.76 | 0.76 | 81 | 1010.9 |
| 20260507013026 | 14 | 349 | 6.4 | 14.5 | 0.00 | 0.76 | 0.76 | 81 | 1010.5 |
| 20260507012544 | 15 | 5 | 8.0 | 14.5 | 0.00 | 0.76 | 0.76 | 80 | 1010.8 |
| 20260507012020 | 15 | 5 | 8.0 | 20.9 | 0.00 | 0.76 | 0.76 | 80 | 1010.8 |
| 20260507011519 | 15 | 322 | 9.7 | 29.0 | 0.00 | 0.76 | 0.76 | 79 | 1010.8 |
| 20260507011017 | 15 | 351 | 14.5 | 25.7 | 0.00 | 0.76 | 0.76 | 79 | 1010.6 |
| 20260507010535 | 15 | 338 | 12.9 | 20.9 | 0.00 | 0.76 | 0.76 | 80 | 1010.5 |
| 20260507010032 | 15 | 354 | 8.0 | 17.7 | 0.00 | 0.76 | 0.76 | 79 | 1010.7 |
| 20260507005551 | 15 | 5 | 8.0 | 17.7 | 0.00 | 0.76 | 0.76 | 79 | 1010.9 |
| 20260507005028 | 15 | 285 | 8.0 | 24.1 | 0.00 | 0.76 | 0.76 | 78 | 1011.0 |
| 20260507004525 | 15 | 289 | 8.0 | 24.1 | 0.00 | 0.76 | 0.76 | 79 | 1011.1 |
| 20260507004022 | 15 | 314 | 12.9 | 29.0 | 0.00 | 0.76 | 0.76 | 79 | 1010.9 |
| 20260507003520 | 15 | 335 | 14.5 | 29.0 | 0.00 | 0.76 | 0.76 | 80 | 1010.8 |
| 20260507003017 | 16 | 317 | 8.0 | 17.7 | 0.00 | 0.76 | 0.76 | 79 | 1010.7 |
| 20260507002555 | 16 | 302 | 8.0 | 22.5 | 0.00 | 0.76 | 0.76 | 79 | 1010.8 |
| 20260507002032 | 16 | 287 | 12.9 | 22.5 | 0.00 | 0.76 | 0.76 | 79 | 1010.7 |
| 20260507001530 | 16 | 300 | 4.8 | 24.1 | 0.00 | 0.76 | 0.76 | 79 | 1010.5 |
| 20260507001028 | 16 | 283 | 9.7 | 24.1 | 0.00 | 0.76 | 0.76 | 79 | 1010.1 |
| 20260507000524 | 16 | 360 | 9.7 | 24.1 | 0.00 | 0.76 | 0.76 | 79 | 1010.2 |
| 20260507000022 | 16 | 264 | 11.3 | 25.7 | 0.00 | 0.76 | 0.76 | 79 | 1010.1 |
| 20260506235518 | 16 | 314 | 12.9 | 29.0 | 0.00 | 0.76 | 0.76 | 80 | 1010.0 |
| 20260506235015 | 16 | 329 | 8.0 | 29.0 | 0.00 | 0.76 | 0.76 | 80 | 1010.0 |
| 20260506234532 | 16 | 282 | 12.9 | 24.1 | 0.00 | 0.76 | 0.76 | 80 | 1009.7 |
| 20260506234051 | 16 | 285 | 11.3 | 22.5 | 0.00 | 0.76 | 0.76 | 80 | 1009.6 |
| 20260506233528 | 16 | 312 | 9.7 | 20.9 | 0.00 | 0.76 | 0.76 | 81 | 1009.4 |
| 20260506233026 | 16 | 279 | 9.7 | 17.7 | 0.00 | 0.76 | 0.76 | 82 | 1009.3 |
| 20260506232521 | 16 | 295 | 9.7 | 17.7 | 0.00 | 0.76 | 0.76 | 83 | 1009.1 |
| 20260506232017 | 17 | 301 | 9.7 | 22.5 | 0.00 | 0.76 | 0.76 | 84 | 1009.0 |
| 20260506231515 | 17 | 331 | 12.9 | 22.5 | 0.00 | 0.76 | 0.76 | 84 | 1009.1 |
| 20260506231033 | 17 | 299 | 9.7 | 22.5 | 0.00 | 0.76 | 0.76 | 84 | 1009.0 |
| 20260506230531 | 17 | 306 | 8.0 | 24.1 | 0.00 | 0.76 | 0.76 | 85 | 1009.0 |
| 20260506230029 | 17 | 322 | 8.0 | 24.1 | 0.00 | 0.76 | 0.76 | 86 | 1009.0 |
| 20260506225526 | 17 | 293 | 9.7 | 20.9 | 0.00 | 0.76 | 0.76 | 86 | 1009.0 |
| 20260506225023 | 17 | 300 | 11.3 | 20.9 | 0.00 | 0.76 | 0.76 | 88 | 1009.0 |
| 20260506224521 | 18 | 277 | 9.7 | 19.3 | 0.00 | 0.76 | 0.76 | 89 | 1008.9 |
| 20260506224039 | 18 | 258 | 4.8 | 9.7 | 0.00 | 0.76 | 0.76 | 89 | 1008.8 |
| 20260506223515 | 18 | 258 | 1.6 | 17.7 | 0.03 | 0.76 | 0.76 | 89 | 1008.7 |
| 20260506223033 | 18 | 258 | 8.0 | 17.7 | 0.03 | 0.76 | 0.76 | 89 | 1008.8 |
| 20260506222552 | 18 | 237 | 4.8 | 12.9 | 0.03 | 0.76 | 0.76 | 89 | 1008.6 |
| 20260506222028 | 18 | 237 | 4.8 | 12.9 | 0.03 | 0.76 | 0.76 | 90 | 1008.5 |
| 20260506221526 | 18 | 223 | 6.4 | 11.3 | 0.03 | 0.76 | 0.76 | 90 | 1008.4 |
| 20260506221040 | 18 | 180 | 0.0 | 8.0 | 0.03 | 0.76 | 0.76 | 91 | 1008.6 |
| 20260506220516 | 18 | 180 | 3.2 | 8.0 | 0.03 | 0.76 | 0.76 | 90 | 1008.5 |
| 20260506220034 | 18 | 180 | 0.0 | 1.6 | 0.03 | 0.76 | 0.76 | 91 | 1008.3 |
| 20260506215532 | 18 | 180 | 0.0 | 3.2 | 0.03 | 0.76 | 0.76 | 91 | 1008.3 |
| 20260506215030 | 18 | 180 | 1.6 | 6.4 | 0.03 | 0.76 | 0.76 | 92 | 1008.3 |
| 20260506214528 | 18 | 180 | 0.0 | 6.4 | 0.03 | 0.76 | 0.76 | 91 | 1008.4 |
| 20260506214046 | 18 | 180 | 0.0 | 8.0 | 0.03 | 0.76 | 0.76 | 91 | 1008.5 |
| 20260506213522 | 18 | 180 | 1.6 | 11.3 | 0.00 | 0.74 | 0.74 | 90 | 1008.4 |
| 20260506213020 | 18 | 180 | 3.2 | 11.3 | 0.00 | 0.74 | 0.74 | 90 | 1008.3 |
| 20260506212517 | 18 | 180 | 3.2 | 8.0 | 0.00 | 0.74 | 0.74 | 90 | 1008.1 |
| 20260506212054 | 18 | 180 | 0.0 | 8.0 | 0.00 | 0.74 | 0.74 | 90 | 1008.0 |
| 20260506211552 | 18 | 180 | 1.6 | 9.7 | 0.00 | 0.74 | 0.74 | 89 | 1008.1 |
| 20260506211050 | 18 | 180 | 1.6 | 9.7 | 0.00 | 0.74 | 0.74 | 89 | 1008.1 |
| 20260506210526 | 18 | 180 | 0.0 | 9.7 | 0.00 | 0.74 | 0.74 | 89 | 1007.9 |
| 20260506210023 | 18 | 180 | 4.8 | 11.3 | 0.00 | 0.74 | 0.74 | 88 | 1007.9 |
| 20260506205520 | 18 | 180 | 3.2 | 14.5 | 0.00 | 0.74 | 0.74 | 88 | 1007.8 |
| 20260506205018 | 18 | 180 | 4.8 | 14.5 | 0.00 | 0.74 | 0.74 | 88 | 1007.7 |
| 20260506204516 | 18 | 177 | 8.0 | 14.5 | 0.00 | 0.74 | 0.74 | 88 | 1007.7 |
| 20260506204055 | 18 | 175 | 4.8 | 11.3 | 0.00 | 0.74 | 0.74 | 88 | 1007.7 |
| 20260506203530 | 18 | 174 | 6.4 | 19.3 | 0.00 | 0.74 | 0.74 | 89 | 1007.6 |
| 20260506203028 | 18 | 183 | 11.3 | 19.3 | 0.00 | 0.74 | 0.74 | 89 | 1007.5 |
| 20260506202526 | 18 | 172 | 8.0 | 17.7 | 0.00 | 0.74 | 0.74 | 89 | 1007.5 |
| 20260506202024 | 18 | 171 | 8.0 | 17.7 | 0.00 | 0.74 | 0.74 | 90 | 1007.4 |
| 20260506201522 | 18 | 185 | 4.8 | 16.1 | 0.00 | 0.74 | 0.74 | 89 | 1007.5 |
| 20260506201041 | 18 | 185 | 9.7 | 19.3 | 0.00 | 0.74 | 0.74 | 89 | 1007.6 |
| 20260506200538 | 18 | 188 | 9.7 | 19.3 | 0.00 | 0.74 | 0.74 | 89 | 1007.5 |
| 20260506200034 | 19 | 173 | 8.0 | 11.3 | 0.00 | 0.74 | 0.74 | 89 | 1007.6 |
| 20260506195531 | 19 | 173 | 4.8 | 12.9 | 0.00 | 0.74 | 0.74 | 90 | 1007.6 |
| 20260506195028 | 19 | 172 | 4.8 | 17.7 | 0.00 | 0.74 | 0.74 | 89 | 1007.5 |
| 20260506194526 | 19 | 171 | 9.7 | 17.7 | 0.00 | 0.74 | 0.74 | 90 | 1007.6 |
| 20260506194024 | 19 | 167 | 1.6 | 17.7 | 0.00 | 0.74 | 0.74 | 91 | 1007.5 |
| 20260506193522 | 18 | 169 | 9.7 | 17.7 | 0.00 | 0.74 | 0.74 | 91 | 1007.5 |
| 20260506193040 | 18 | 200 | 8.0 | 16.1 | 0.00 | 0.74 | 0.74 | 92 | 1007.5 |
| 20260506192515 | 18 | 182 | 4.8 | 19.3 | 0.00 | 0.74 | 0.74 | 91 | 1007.7 |
| 20260506192050 | 18 | 179 | 11.3 | 19.3 | 0.00 | 0.74 | 0.74 | 91 | 1007.6 |
| 20260506191525 | 18 | 177 | 9.7 | 14.5 | 0.00 | 0.74 | 0.74 | 91 | 1007.5 |
| 20260506191021 | 18 | 169 | 9.7 | 17.7 | 0.00 | 0.74 | 0.74 | 91 | 1007.6 |
| 20260506190518 | 19 | 175 | 11.3 | 17.7 | 0.03 | 0.74 | 0.74 | 91 | 1007.6 |
| 20260506190016 | 18 | 177 | 6.4 | 14.5 | 0.05 | 0.74 | 0.74 | 90 | 1007.5 |
| 20260506185532 | 19 | 179 | 6.4 | 14.5 | 0.05 | 0.74 | 0.74 | 90 | 1007.6 |
| 20260506185029 | 18 | 185 | 4.8 | 20.9 | 0.08 | 0.74 | 0.74 | 92 | 1007.7 |
| 20260506184527 | 18 | 153 | 6.4 | 20.9 | 0.08 | 0.74 | 0.74 | 93 | 1007.7 |
| 20260506184025 | 18 | 184 | 3.2 | 14.5 | 0.10 | 0.74 | 0.74 | 93 | 1008.0 |
| 20260506183522 | 18 | 195 | 3.2 | 14.5 | 0.10 | 0.74 | 0.74 | 93 | 1008.1 |
| 20260506183020 | 18 | 178 | 6.4 | 14.5 | 0.10 | 0.74 | 0.74 | 93 | 1008.2 |
| 20260506182517 | 18 | 179 | 4.8 | 12.9 | 0.10 | 0.74 | 0.74 | 94 | 1008.2 |
| 20260506182035 | 17 | 181 | 0.0 | 14.5 | 0.10 | 0.74 | 0.74 | 93 | 1008.1 |
| 20260506181532 | 17 | 181 | 8.0 | 14.5 | 0.10 | 0.74 | 0.74 | 93 | 1008.1 |
| 20260506181027 | 17 | 177 | 8.0 | 12.9 | 0.10 | 0.74 | 0.74 | 93 | 1008.2 |
| 20260506180524 | 17 | 171 | 6.4 | 14.5 | 0.08 | 0.71 | 0.71 | 92 | 1008.1 |
| 20260506180021 | 17 | 171 | 3.2 | 14.5 | 0.05 | 0.69 | 0.69 | 92 | 1008.1 |
| 20260506175518 | 17 | 181 | 8.0 | 14.5 | 0.05 | 0.69 | 0.69 | 91 | 1008.2 |
| 20260506175035 | 17 | 190 | 9.7 | 22.5 | 0.03 | 0.66 | 0.66 | 90 | 1008.1 |
| 20260506174533 | 17 | 180 | 12.9 | 22.5 | 0.03 | 0.66 | 0.66 | 90 | 1008.1 |
| 20260506174029 | 18 | 176 | 9.7 | 17.7 | 0.00 | 0.64 | 0.64 | 89 | 1007.9 |
| 20260506173548 | 18 | 181 | 8.0 | 24.1 | 0.00 | 0.64 | 0.64 | 87 | 1008.0 |
| 20260506173025 | 18 | 192 | 11.3 | 24.1 | 0.00 | 0.64 | 0.64 | 86 | 1007.9 |
| 20260506172522 | 18 | 180 | 8.0 | 17.7 | 0.00 | 0.64 | 0.64 | 86 | 1007.8 |
| 20260506172020 | 18 | 190 | 4.8 | 17.7 | 0.00 | 0.64 | 0.64 | 86 | 1007.8 |
| 20260506171517 | 18 | 179 | 9.7 | 16.1 | 0.00 | 0.64 | 0.64 | 88 | 1007.7 |
| 20260506171015 | 18 | 196 | 4.8 | 19.3 | 0.00 | 0.64 | 0.64 | 87 | 1007.7 |
| 20260506170532 | 18 | 196 | 9.7 | 20.9 | 0.00 | 0.64 | 0.64 | 87 | 1007.8 |
| 20260506170030 | 18 | 173 | 9.7 | 20.9 | 0.00 | 0.64 | 0.64 | 87 | 1007.8 |
| 20260506165550 | 18 | 177 | 12.9 | 20.9 | 0.00 | 0.64 | 0.64 | 87 | 1007.7 |
| 20260506165027 | 18 | 189 | 11.3 | 22.5 | 0.00 | 0.64 | 0.64 | 87 | 1007.6 |
| 20260506164525 | 18 | 134 | 12.9 | 22.5 | 0.00 | 0.64 | 0.64 | 87 | 1007.7 |
| 20260506164022 | 18 | 181 | 11.3 | 20.9 | 0.00 | 0.64 | 0.64 | 88 | 1007.7 |
| 20260506163518 | 18 | 196 | 9.7 | 32.2 | 0.00 | 0.64 | 0.64 | 88 | 1007.8 |
| 20260506163016 | 18 | 194 | 14.5 | 35.4 | 0.00 | 0.64 | 0.64 | 88 | 1007.8 |
| 20260506162534 | 18 | 194 | 11.3 | 24.1 | 0.00 | 0.64 | 0.64 | 89 | 1007.8 |
| 20260506162031 | 17 | 193 | 9.7 | 32.2 | 0.00 | 0.64 | 0.64 | 89 | 1007.8 |
| 20260506161529 | 17 | 186 | 14.5 | 32.2 | 0.00 | 0.64 | 0.64 | 88 | 1007.8 |
| 20260506161026 | 17 | 167 | 9.7 | 25.7 | 0.00 | 0.64 | 0.64 | 90 | 1007.7 |
| 20260506160523 | 17 | 182 | 14.5 | 25.7 | 0.00 | 0.64 | 0.64 | 90 | 1007.6 |
| 20260506160021 | 17 | 145 | 9.7 | 24.1 | 0.00 | 0.64 | 0.64 | 91 | 1007.6 |
| 20260506155519 | 17 | 183 | 11.3 | 33.8 | 0.00 | 0.64 | 0.64 | 92 | 1007.7 |
| 20260506155018 | 17 | 182 | 17.7 | 33.8 | 0.00 | 0.64 | 0.64 | 91 | 1007.8 |
| 20260506154516 | 17 | 194 | 12.9 | 25.7 | 0.00 | 0.64 | 0.64 | 92 | 1007.9 |
| 20260506154033 | 16 | 181 | 12.9 | 29.0 | 0.00 | 0.64 | 0.64 | 92 | 1008.0 |
| 20260506153530 | 16 | 192 | 14.5 | 29.0 | 0.00 | 0.64 | 0.64 | 92 | 1008.0 |
| 20260506153028 | 16 | 193 | 14.5 | 32.2 | 0.00 | 0.64 | 0.64 | 92 | 1008.0 |
| 20260506152525 | 16 | 122 | 16.1 | 32.2 | 0.03 | 0.64 | 0.64 | 92 | 1007.8 |
| 20260506152023 | 16 | 167 | 16.1 | 29.0 | 0.03 | 0.64 | 0.64 | 93 | 1007.7 |